Simultaneous Nadir Overpasses (SNOs) Predictions

Prediction of SNOs between GOES-16 and METOP-B Satellite Orbit:

Table of predicted SNOs for the next 14.0 days since TLE Epoch: 10/21/2023
Index Date Time (GOES-16) GOES-16 Lat,Lon METOP-B Lat,Lon Distance(km) Time Diff (sec)
1 10/21/2023 14:32:40 -0.05, -75.22 0.22, -76.47 142.86 80
2 10/22/2023 14:14:39 -0.05, -75.22 -0.91, -71.48 426.98 80
3 10/24/2023 02:33:37 0.05, -75.22 -0.16, -76.06 97.16 80
4 10/25/2023 02:10:16 0.05, -75.22 0.97, -71.07 473.18 80
5 10/26/2023 14:29:06 -0.05, -75.25 0.05, -75.63 42.92 80
6 10/29/2023 02:27:22 0.05, -75.27 0.04, -75.22 5.59 80
7 10/31/2023 14:28:11 -0.04, -75.32 -0.18, -74.79 61.18 80
8 11/02/2023 02:47:09 0.04, -75.33 -0.86, -79.38 460.70 80
9 11/03/2023 02:23:47 0.03, -75.35 0.23, -74.38 110.91 80
